DW4982 El Papiol ES current weather conditions

sailwx.info

Wind from 140

Air temperature 24.4° C
Dewpoint 14.2° C

Last reported at 2019-Sep-16 19:05 UTC.
Time now 2019-Sep-16 22:38 UTC

Location: N 41°26' E 002°00'.
View on Google Maps.

See reports from other nearby stations

  
Tides and Currents Weather Stations Pressure Air Temp Water Temp Dewpoint Dewpoint Depression Visibility Wind Speed Wind Dir Waves Ship Positions
date/time (UTC)wind fromknots sea level pressurealtimeterstation pressurevisibilityair tempwater tempwave heightnotes
2019-Sep-16 19:05 140 24.4
2019-Sep-16 19:00 140 0 gusting 3 24.4
2019-Sep-16 18:50 132 2 gusting 3 25.0
2019-Sep-16 18:45 104 0 gusting 3 25.0
2019-Sep-16 18:40 106 1 gusting 3 25.0
2019-Sep-16 18:35 126 1 gusting 3 25.0
2019-Sep-16 18:30 127 0 gusting 3 25.0
2019-Sep-16 18:25 134 1 gusting 4 25.0
2019-Sep-16 18:20 138 2 gusting 4 25.6
2019-Sep-16 18:15 138 2 gusting 3 25.6
2019-Sep-16 18:10 157 1 gusting 3 25.6
2019-Sep-16 18:05 157 0 gusting 4 25.6
2019-Sep-16 18:00 157 2 gusting 5 25.6
2019-Sep-16 17:55 153 2 gusting 5 25.6
2019-Sep-16 17:50 149 2 gusting 5 25.6
2019-Sep-16 17:45 157 4 gusting 5 26.1
2019-Sep-16 17:35 156 3 gusting 4 26.1
2019-Sep-16 17:30 181 1 gusting 6 26.1
2019-Sep-16 17:25 190 3 gusting 6 26.1
2019-Sep-16 17:20 161 3 gusting 6 26.1
2019-Sep-16 17:15 151 3 gusting 7 26.1
2019-Sep-16 17:10 183 4 gusting 8 26.7
2019-Sep-16 17:05 166 4 gusting 9 26.7
2019-Sep-16 17:00 163 5 gusting 9 26.7
2019-Sep-16 16:55 154 2 gusting 6 26.7
2019-Sep-16 16:50 148 3 gusting 8 26.7
2019-Sep-16 16:45 139 5 gusting 10 26.7
2019-Sep-16 16:40 162 6 gusting 10 27.2
2019-Sep-16 16:35 138 2 gusting 10 26.7
2019-Sep-16 16:30 139 6 gusting 10 26.7
2019-Sep-16 16:25 149 7 gusting 13 26.7
2019-Sep-16 16:20 152 6 gusting 13 26.7
2019-Sep-16 16:15 165 4 gusting 10 27.2
2019-Sep-16 16:10 165 4 gusting 10 27.2
2019-Sep-16 16:05 172 5 gusting 10 27.2
2019-Sep-16 16:00 195 6 gusting 11 27.2
2019-Sep-16 15:55 184 6 gusting 11 27.2
2019-Sep-16 15:50 208 4 gusting 10 27.2
2019-Sep-16 15:45 171 6 gusting 10 27.2
2019-Sep-16 15:40 167 5 gusting 10 27.2
2019-Sep-16 15:35 117 3 gusting 13 27.2
2019-Sep-16 15:30 172 6 gusting 13 27.2
2019-Sep-16 15:25 209 5 gusting 10 27.2
2019-Sep-16 15:20 178 3 gusting 10 27.2
2019-Sep-16 15:15 171 6 gusting 9 27.2
2019-Sep-16 15:10 196 2 gusting 9 27.2
2019-Sep-16 15:05 182 5 gusting 10 27.2
2019-Sep-16 15:00 202 5 gusting 10 27.8
2019-Sep-16 14:55 162 6 gusting 8 27.2
2019-Sep-16 14:50 174 5 gusting 8 27.8
2019-Sep-16 14:45 225 3 gusting 7 27.8
2019-Sep-16 14:40 139 3 gusting 7 27.8
2019-Sep-16 14:35 275 3 gusting 7 27.8
2019-Sep-16 14:30 178 4 gusting 8 27.8
2019-Sep-16 14:25 209 4 gusting 10 27.8
2019-Sep-16 14:20 223 4 gusting 10 27.8
2019-Sep-16 14:15 204 2 gusting 7 27.2
2019-Sep-16 14:05 223 2 gusting 5 27.2
2019-Sep-16 14:00 248 1 gusting 8 27.2
2019-Sep-16 13:55 208 3 gusting 13 26.7
2019-Sep-16 13:50 208 5 gusting 13 26.7
2019-Sep-16 13:45 196 4 gusting 10 26.7
2019-Sep-16 13:40 170 7 gusting 12 26.7
2019-Sep-16 13:35 217 4 gusting 12 26.7
2019-Sep-16 13:30 188 5 gusting 9 27.2
2019-Sep-16 13:25 211 5 gusting 12 27.2
2019-Sep-16 13:20 167 6 gusting 12 26.7
2019-Sep-16 13:15 213 4 gusting 13 26.7
2019-Sep-16 13:10 231 8 gusting 13 26.7
2019-Sep-16 13:05 180 6 gusting 11 27.2
2019-Sep-16 13:00 207 3 gusting 10 26.7
2019-Sep-16 12:55 113 6 gusting 11 26.7
2019-Sep-16 12:50 150 3 gusting 11 26.7
2019-Sep-16 12:45 182 5 gusting 13 26.7
2019-Sep-16 12:40 155 4 gusting 13 26.1
2019-Sep-16 12:35 151 7 gusting 13 26.1
2019-Sep-16 12:30 147 6 gusting 13 26.1
2019-Sep-16 12:25 201 6 gusting 13 26.1
2019-Sep-16 12:20 142 5 gusting 13 26.1
2019-Sep-16 12:15 156 5 gusting 11 26.1
2019-Sep-16 12:10 175 5 gusting 13 26.1
2019-Sep-16 12:05 232 7 gusting 16 26.7
2019-Sep-16 12:00 210 9 gusting 16 26.7
2019-Sep-16 11:55 238 7 gusting 13 26.7
2019-Sep-16 11:50 236 5 gusting 14 26.7
2019-Sep-16 11:45 147 9 gusting 13 26.7
2019-Sep-16 11:40 150 6 gusting 13 26.7
2019-Sep-16 11:35 163 6 gusting 13 27.2
2019-Sep-16 11:30 180 8 gusting 13 27.2
2019-Sep-16 11:25 184 6 gusting 13 26.7
2019-Sep-16 11:20 150 8 gusting 13 26.7
2019-Sep-16 11:15 144 6 gusting 14 26.7
2019-Sep-16 11:10 176 6 gusting 14 26.7
2019-Sep-16 11:05 188 6 gusting 13 27.2
2019-Sep-16 11:00 245 5 gusting 11 27.2
2019-Sep-16 10:55 238 7 gusting 11 26.7
2019-Sep-16 10:50 174 6 gusting 12 26.7
2019-Sep-16 10:45 194 7 gusting 12 26.7
2019-Sep-16 10:40 176 5 gusting 9 27.2
2019-Sep-16 10:35 211 2 gusting 8 26.7
2019-Sep-16 10:30 232 2 gusting 5 26.7
2019-Sep-16 10:25 279 3 gusting 5 26.7
2019-Sep-16 10:20 185 2 gusting 5 26.7
2019-Sep-16 10:15 165 2 gusting 4 26.1
2019-Sep-16 10:10 240 0 gusting 3 26.1
2019-Sep-16 10:05 150 2 gusting 3 26.1
2019-Sep-16 10:00 198 1 gusting 3 26.1
2019-Sep-16 09:55 175 2 gusting 3 26.1
2019-Sep-16 09:50 355 26.1
2019-Sep-16 09:45 360 1 gusting 3 26.1
2019-Sep-16 09:40 005 26.1
2019-Sep-16 09:35 005 1 gusting 2 25.6
2019-Sep-16 09:30 360 0 gusting 2 25.6
2019-Sep-16 09:25 005 0 gusting 2 25.0
2019-Sep-16 09:20 355 1 gusting 3 25.0
2019-Sep-16 09:15 355 1 gusting 3 24.4
2019-Sep-16 09:10 320 1 gusting 4 24.4
2019-Sep-16 09:05 317 3 gusting 4 24.4
2019-Sep-16 09:00 009 2 gusting 4 23.9
2019-Sep-16 08:55 018 3 gusting 4 23.3
2019-Sep-16 08:50 339 3 gusting 4 23.3
2019-Sep-16 08:45 323 3 gusting 5 22.8
2019-Sep-16 08:40 336 3 gusting 6 22.8
2019-Sep-16 08:30 338 4 gusting 5 22.2
2019-Sep-16 08:25 011 2 gusting 5 22.2
2019-Sep-16 08:20 360 3 gusting 5 21.7
2019-Sep-16 08:15 332 4 gusting 5 21.7
2019-Sep-16 08:10 014 3 gusting 5 21.7
2019-Sep-16 08:05 355 4 gusting 6 21.7
2019-Sep-16 08:00 350 4 gusting 6 21.1
2019-Sep-16 07:55 333 3 gusting 6 21.1
2019-Sep-16 07:50 340 4 gusting 6 20.6
2019-Sep-16 07:45 360 3 gusting 6 20.6
2019-Sep-16 07:40 346 4 gusting 5 20.6
2019-Sep-16 07:35 343 2 gusting 5 20.0
2019-Sep-16 07:30 351 1 gusting 5 20.0
2019-Sep-16 07:25 342 4 gusting 6 19.4
2019-Sep-16 07:20 360 2 gusting 6 19.4
2019-Sep-16 07:15 355 4 gusting 6 19.4
2019-Sep-16 07:10 351 3 gusting 5 18.9
2019-Sep-16 07:05 009 3 gusting 5 18.9
2019-Sep-16 07:00 018 2 gusting 7 18.9
2019-Sep-16 06:55 355 3 gusting 7 18.3
2019-Sep-16 06:50 360 4 gusting 6 18.3
2019-Sep-16 06:45 009 4 gusting 6 18.3
2019-Sep-16 06:40 355 5 gusting 6 18.3
2019-Sep-16 06:35 355 3 gusting 6 18.3
2019-Sep-16 06:30 355 3 gusting 6 18.3
2019-Sep-16 06:25 355 3 gusting 4 18.3
2019-Sep-16 06:20 021 2 gusting 5 18.3
2019-Sep-16 06:15 360 3 gusting 4 18.3
2019-Sep-16 06:10 024 3 gusting 5 18.3
2019-Sep-16 06:05 025 3 gusting 6 18.3
2019-Sep-16 06:00 015 3 gusting 6 18.3
2019-Sep-16 05:55 017 3 gusting 6 18.3
2019-Sep-16 05:50 012 4 gusting 5 18.3
2019-Sep-16 05:45 355 4 gusting 5 18.3
2019-Sep-16 05:40 017 3 gusting 5 18.3
2019-Sep-16 05:35 340 4 gusting 5 18.3
2019-Sep-16 05:30 013 2 gusting 3 18.3
2019-Sep-16 05:25 011 1 gusting 3 18.3
2019-Sep-16 05:20 011 1 gusting 4 18.3
2019-Sep-16 05:15 009 2 gusting 4 18.3
2019-Sep-16 05:10 013 3 gusting 5 18.3
2019-Sep-16 05:05 021 3 gusting 5 18.3
2019-Sep-16 05:00 037 2 gusting 5 18.3
2019-Sep-16 04:55 012 3 gusting 5 18.3
2019-Sep-16 04:50 005 4 gusting 5 18.3
2019-Sep-16 04:45 012 3 gusting 5 18.3
2019-Sep-16 04:40 360 3 gusting 5 18.3
2019-Sep-16 04:35 005 3 gusting 5 18.3
2019-Sep-16 04:30 360 4 gusting 6 18.3
2019-Sep-16 04:25 018 4 gusting 6 18.3
2019-Sep-16 04:20 355 4 gusting 5 18.3
2019-Sep-16 04:15 331 3 gusting 5 18.3
2019-Sep-16 04:10 005 2 gusting 5 18.3
2019-Sep-16 04:05 355 3 gusting 8 18.9
2019-Sep-16 04:00 360 5 gusting 8 18.9
2019-Sep-16 03:55 350 4 gusting 6 18.9
2019-Sep-16 03:50 355 3 gusting 6 18.9
2019-Sep-16 03:45 346 3 gusting 6 18.9
2019-Sep-16 03:40 013 3 gusting 6 18.9
2019-Sep-16 03:35 355 5 gusting 6 18.9
2019-Sep-16 03:30 009 4 gusting 5 18.9
2019-Sep-16 03:25 360 4 gusting 5 18.9
2019-Sep-16 03:20 012 3 gusting 6 18.9
2019-Sep-16 03:15 005 4 gusting 5 18.3
2019-Sep-16 03:10 355 3 gusting 5 18.3
2019-Sep-16 03:05 017 3 gusting 5 18.3
2019-Sep-16 03:00 028 3 gusting 7 17.8
2019-Sep-16 02:55 321 5 gusting 7 18.3
2019-Sep-16 02:50 349 4 gusting 6 18.3
2019-Sep-16 02:45 355 4 gusting 6 18.9
2019-Sep-16 02:40 025 4 gusting 6 18.9
2019-Sep-16 02:35 017 1 gusting 5 18.9
2019-Sep-16 02:30 029 2 gusting 6 18.9
2019-Sep-16 02:25 017 2 gusting 5 18.9
2019-Sep-16 02:20 009 3 gusting 5 18.9
2019-Sep-16 02:15 011 2 gusting 6 18.9
2019-Sep-16 02:10 350 2 gusting 6 18.9
2019-Sep-16 02:05 360 4 gusting 6 18.9
2019-Sep-16 02:00 010 3 gusting 4 18.9
2019-Sep-16 01:55 005 2 gusting 6 18.9
2019-Sep-16 01:50 023 3 gusting 5 18.9
2019-Sep-16 01:45 360 2 gusting 5 18.9
2019-Sep-16 01:40 005 3 gusting 5 18.9
2019-Sep-16 01:35 338 3 gusting 6 18.9
2019-Sep-16 01:30 340 3 gusting 6 18.9
2019-Sep-16 01:25 355 4 gusting 6 18.9
2019-Sep-16 01:20 325 4 gusting 6 18.9
2019-Sep-16 01:15 344 2 gusting 4 19.4
2019-Sep-16 01:10 342 0 gusting 5 19.4
2019-Sep-16 01:05 005 3 gusting 5 19.4
2019-Sep-16 01:00 355 3 gusting 4 19.4
2019-Sep-16 00:55 340 2 gusting 3 19.4
2019-Sep-16 00:50 310 1 gusting 3 19.4
2019-Sep-16 00:45 331 20.0
2019-Sep-16 00:40 021 20.6
2019-Sep-16 00:35 005 20.6
2019-Sep-16 00:30 014 1 gusting 4 20.6
2019-Sep-16 00:25 014 2 gusting 4 20.6
2019-Sep-16 00:20 355 2 gusting 4 20.6
2019-Sep-16 00:15 011 2 gusting 4 20.6
2019-Sep-16 00:10 005 2 gusting 4 20.6
2019-Sep-16 00:05 020 2 gusting 6 20.6
2019-Sep-16 00:00 022 4 gusting 6 20.6
2019-Sep-15 23:55 355 3 gusting 5 20.6
2019-Sep-15 23:50 009 4 gusting 5 20.6
2019-Sep-15 23:45 009 3 gusting 6 20.6
2019-Sep-15 23:40 017 4 gusting 6 20.6
2019-Sep-15 23:35 014 3 gusting 6 20.6
2019-Sep-15 23:30 032 4 gusting 6 20.6
2019-Sep-15 23:25 011 3 gusting 7 20.6
2019-Sep-15 23:20 355 6 gusting 7 20.6
2019-Sep-15 23:15 355 4 gusting 6 20.6
2019-Sep-15 23:10 345 4 gusting 6 20.6
2019-Sep-15 23:05 349 3 gusting 4 20.6
2019-Sep-15 23:00 350 2 gusting 5 20.6
2019-Sep-15 22:55 355 3 gusting 5 21.1
2019-Sep-15 22:50 005 3 gusting 5 21.1
2019-Sep-15 22:45 030 3 gusting 4 21.1
2019-Sep-15 22:40 030 3 gusting 4 21.7
2019-Sep-15 22:30 030 1 gusting 3 21.7
2019-Sep-15 22:25 030 1 gusting 3 21.7
2019-Sep-15 22:20 031 2 gusting 3 21.7
2019-Sep-15 22:15 030 21.7
2019-Sep-15 22:10 031 21.7
2019-Sep-15 22:05 030 21.7
2019-Sep-15 22:00 031 21.7
2019-Sep-15 21:55 031 21.7
2019-Sep-15 21:50 031 22.2
2019-Sep-15 21:45 030 22.2
2019-Sep-15 21:40 030 22.2
2019-Sep-15 21:35 031 22.2
2019-Sep-15 21:30 030 22.2
2019-Sep-15 21:25 030 22.8
2019-Sep-15 21:20 031 22.8
2019-Sep-15 21:15 031 1 gusting 2 22.8
2019-Sep-15 21:10 030 0 gusting 2 22.2
2019-Sep-15 21:00 030 22.8
2019-Sep-15 20:55 031 22.8
2019-Sep-15 20:50 030 22.8
2019-Sep-15 20:45 030 22.8
2019-Sep-15 20:40 030 22.8
2019-Sep-15 20:35 031 22.8
2019-Sep-15 20:30 030 22.8
2019-Sep-15 20:25 031 22.8
2019-Sep-15 20:20 030 23.3
2019-Sep-15 20:15 031 23.3
2019-Sep-15 20:10 030 23.3
2019-Sep-15 20:05 030 23.3
2019-Sep-15 20:00 030 23.9
2019-Sep-15 19:55 094 23.9
2019-Sep-15 19:50 096 23.9
2019-Sep-15 19:45 096 23.9
2019-Sep-15 19:40 099 23.9
2019-Sep-15 19:30 099 23.9
2019-Sep-15 19:25 099 0 gusting 2 23.9
2019-Sep-15 19:20 099 1 gusting 3 24.4
2019-Sep-15 19:15 099 0 gusting 3 23.9
2019-Sep-15 19:10 099 0 gusting 3 23.9
2019-Sep-15 19:00 157 1 gusting 4 23.9
2019-Sep-15 18:55 119 3 gusting 4 23.9
2019-Sep-15 18:50 138 1 gusting 4 23.9
2019-Sep-15 18:45 134 0 gusting 4 23.9
2019-Sep-15 18:40 146 3 gusting 6 23.9
2019-Sep-15 18:35 207 2 gusting 6 23.9
2019-Sep-15 18:30 175 2 gusting 9 24.4
2019-Sep-15 18:25 184 2 gusting 9 24.4
2019-Sep-15 18:20 111 4 gusting 6 24.4
2019-Sep-15 18:15 215 2 gusting 8 24.4
2019-Sep-15 18:10 086 4 gusting 8 24.4
2019-Sep-15 18:05 122 3 gusting 7 24.4
2019-Sep-15 18:00 136 3 gusting 7 24.4
2019-Sep-15 17:55 117 3 gusting 6 24.4
2019-Sep-15 17:50 151 2 gusting 5 25.0
2019-Sep-15 17:45 132 2 gusting 8 25.0
2019-Sep-15 17:40 126 4 gusting 8 25.0
2019-Sep-15 17:35 140 6 gusting 8 25.0
2019-Sep-15 17:30 143 3 gusting 14 25.0
2019-Sep-15 17:20 163 6 gusting 14 25.0
2019-Sep-15 17:15 146 10 gusting 13 25.0
2019-Sep-15 17:10 189 5 gusting 10 25.6
2019-Sep-15 17:05 141 3 gusting 13 25.6
2019-Sep-15 16:55 102 3 gusting 13 25.6
2019-Sep-15 16:50 100 6 gusting 11 25.6
2019-Sep-15 16:45 128 6 gusting 13 25.6
2019-Sep-15 16:40 127 6 gusting 13 26.1
2019-Sep-15 16:35 138 4 gusting 13 26.1
2019-Sep-15 16:30 103 4 gusting 13 26.1
2019-Sep-15 16:25 082 4 gusting 14 26.1
2019-Sep-15 16:20 141 8 gusting 14 26.1
2019-Sep-15 16:15 090 4 gusting 15 26.1
2019-Sep-15 16:10 144 7 gusting 15 26.7
2019-Sep-15 16:05 147 5 gusting 14 26.1
2019-Sep-15 16:00 128 6 gusting 13 26.7
2019-Sep-15 15:50 134 5 gusting 11 26.7
2019-Sep-15 15:45 128 6 gusting 13 26.7
2019-Sep-15 15:40 155 6 gusting 15 26.7
2019-Sep-15 15:35 086 8 gusting 15 26.7
2019-Sep-15 15:30 161 5 gusting 12 27.2
2019-Sep-15 15:25 096 6 gusting 12 27.2
2019-Sep-15 15:20 102 4 gusting 12 27.2
2019-Sep-15 15:15 175 6 gusting 12 27.2
2019-Sep-15 15:10 107 2 gusting 8 27.8
2019-Sep-15 15:05 132 2 gusting 10 27.8
2019-Sep-15 15:00 071 3 gusting 14 27.2
2019-Sep-15 14:55 106 6 gusting 14 27.2
2019-Sep-15 14:50 086 7 gusting 13 27.8
2019-Sep-15 14:45 104 3 gusting 14 27.8
2019-Sep-15 14:40 121 8 gusting 14 27.8
2019-Sep-15 14:35 086 3 gusting 9 28.3
2019-Sep-15 14:30 160 2 gusting 10 28.3
2019-Sep-15 14:25 087 4 gusting 10 28.3
2019-Sep-15 14:20 125 3 gusting 10 27.8
2019-Sep-15 14:15 138 4 gusting 10 27.8
2019-Sep-15 14:10 162 2 gusting 13 27.8
2019-Sep-15 14:05 085 9 gusting 14 27.8
2019-Sep-15 14:00 160 8 gusting 14 27.8
2019-Sep-15 13:55 144 4 gusting 13 28.3
2019-Sep-15 13:50 117 6 gusting 16 27.8
2019-Sep-15 13:45 131 7 gusting 16 27.8
2019-Sep-15 13:40 159 4 gusting 13 28.3
2019-Sep-15 13:35 150 3 gusting 13 28.3
2019-Sep-15 13:30 116 3 gusting 13 28.3
2019-Sep-15 13:25 109 6 gusting 13 28.3
2019-Sep-15 13:20 141 4 gusting 13 28.3
2019-Sep-15 13:15 114 5 gusting 13 28.3
2019-Sep-15 13:10 165 6 gusting 11 28.3
2019-Sep-15 13:05 142 6 gusting 12 28.3
2019-Sep-15 13:00 121 9 gusting 13 28.3
2019-Sep-15 12:55 159 4 gusting 13 28.9
2019-Sep-15 12:50 080 3 gusting 13 28.9
2019-Sep-15 12:45 104 4 gusting 12 28.9
2019-Sep-15 12:40 159 5 gusting 13 28.9
2019-Sep-15 12:35 071 6 gusting 13 28.9
2019-Sep-15 12:30 117 3 gusting 13 28.9
2019-Sep-15 12:25 037 3 gusting 13 28.9
2019-Sep-15 12:20 054 7 gusting 13 28.9
2019-Sep-15 12:15 087 4 gusting 13 28.9
2019-Sep-15 12:10 093 5 gusting 12 28.9
2019-Sep-15 12:05 136 4 gusting 12 28.9
2019-Sep-15 12:00 065 7 gusting 15 28.9
2019-Sep-15 11:55 110 5 gusting 15 28.9
2019-Sep-15 11:50 175 6 gusting 14 28.9
2019-Sep-15 11:45 167 3 gusting 14 28.9
2019-Sep-15 11:40 126 9 gusting 14 28.9
2019-Sep-15 11:35 109 4 gusting 13 28.9
2019-Sep-15 11:30 088 6 gusting 13 28.9
2019-Sep-15 11:25 110 7 gusting 14 28.9
2019-Sep-15 11:20 125 6 gusting 14 28.3
2019-Sep-15 11:15 117 3 gusting 14 28.3
2019-Sep-15 11:10 231 6 gusting 14 28.3
2019-Sep-15 11:05 119 7 gusting 12 28.3
2019-Sep-15 11:00 097 4 gusting 12 28.3
2019-Sep-15 10:55 119 3 gusting 13 28.3
2019-Sep-15 10:50 093 6 gusting 13 28.3
2019-Sep-15 10:45 169 3 gusting 11 28.3
2019-Sep-15 10:40 151 2 gusting 11 28.3
2019-Sep-15 10:35 121 6 gusting 10 28.3
2019-Sep-15 10:30 063 5 gusting 10 28.3
2019-Sep-15 10:25 319 1 gusting 13 27.8
2019-Sep-15 10:20 077 5 gusting 13 27.8
2019-Sep-15 10:15 099 4 gusting 13 27.8
2019-Sep-15 10:10 089 3 gusting 13 27.2
2019-Sep-15 10:05 127 6 gusting 10 27.2
2019-Sep-15 10:00 088 6 gusting 10 27.2
2019-Sep-15 09:55 087 2 gusting 8 26.7
2019-Sep-15 09:50 086 4 gusting 8 26.1
2019-Sep-15 09:45 049 3 gusting 7 26.1
2019-Sep-15 09:40 075 1 gusting 7 25.6
2019-Sep-15 09:35 011 1 gusting 11 26.1
2019-Sep-15 09:30 115 6 gusting 11 25.6
2019-Sep-15 09:25 065 1 gusting 5 25.6
2019-Sep-15 09:20 065 3 gusting 5 25.6
2019-Sep-15 09:15 085 25.0
2019-Sep-15 09:10 086 1 gusting 5 25.0
2019-Sep-15 09:05 121 1 gusting 8 24.4
2019-Sep-15 09:00 098 5 gusting 8 24.4
2019-Sep-15 08:55 093 1 gusting 5 24.4
2019-Sep-15 08:50 081 0 gusting 4 24.4
2019-Sep-15 08:45 085 0 gusting 7 23.9
2019-Sep-15 08:40 076 3 gusting 7 23.9
2019-Sep-15 08:35 078 2 gusting 6 23.9
2019-Sep-15 08:30 072 2 gusting 4 23.3
2019-Sep-15 08:25 019 0 gusting 4 22.8
2019-Sep-15 08:20 074 2 gusting 4 22.2
2019-Sep-15 08:15 320 1 gusting 5 22.2
2019-Sep-15 08:10 304 3 gusting 5 21.7
2019-Sep-15 08:05 320 2 gusting 3 21.7
2019-Sep-15 08:00 345 2 gusting 4 21.1
2019-Sep-15 07:55 342 3 gusting 4 21.1
2019-Sep-15 07:50 005 2 gusting 3 21.1
2019-Sep-15 07:45 005 1 gusting 3 21.1
2019-Sep-15 07:40 321 2 gusting 3 21.1
2019-Sep-15 07:35 013 20.6
2019-Sep-15 07:30 013 20.6
2019-Sep-15 07:25 013 0 gusting 2 20.0
2019-Sep-15 07:20 013 0 gusting 2 20.0
2019-Sep-15 07:15 013 1 gusting 3 20.0
2019-Sep-15 07:10 013 1 gusting 3 20.0
2019-Sep-15 07:05 009 1 gusting 3 19.4
2019-Sep-15 07:00 009 1 gusting 3 18.9
2019-Sep-15 06:55 360 1 gusting 3 18.9
2019-Sep-15 06:50 349 2 gusting 2 18.3
2019-Sep-15 06:45 347 1 gusting 2 18.3
2019-Sep-15 06:40 347 1 gusting 2 18.3
2019-Sep-15 06:35 347 1 gusting 3 18.3
2019-Sep-15 06:30 347 0 gusting 3 18.3
2019-Sep-15 06:25 347 2 gusting 3 18.9
2019-Sep-15 06:20 347 1 gusting 2 18.9
2019-Sep-15 06:15 348 18.9
2019-Sep-15 06:10 347 1 gusting 3 18.9
2019-Sep-15 06:05 360 2 gusting 3 18.9
2019-Sep-15 06:00 011 1 gusting 2 18.9
2019-Sep-15 05:55 011 1 gusting 3 18.9
2019-Sep-15 05:50 011 2 gusting 3 18.9
2019-Sep-15 05:45 012 2 gusting 3 18.9
2019-Sep-15 05:40 012 2 gusting 3 18.9
2019-Sep-15 05:35 012 2 gusting 4 19.4
2019-Sep-15 05:30 340 3 gusting 4 19.4
2019-Sep-15 05:25 017 2 gusting 4 19.4
2019-Sep-15 05:15 020 3 gusting 4 19.4
2019-Sep-15 05:10 018 3 gusting 4 19.4
2019-Sep-15 05:05 026 3 gusting 4 19.4
2019-Sep-15 05:00 025 3 gusting 4 19.4
2019-Sep-15 04:55 019 2 gusting 3 18.9
2019-Sep-15 04:50 026 2 gusting 5 18.9
2019-Sep-15 04:45 034 3 gusting 5 18.9
2019-Sep-15 04:40 025 4 gusting 5 19.4
2019-Sep-15 04:35 360 2 gusting 4 19.4
2019-Sep-15 04:30 355 3 gusting 4 20.0
2019-Sep-15 04:20 009 3 gusting 4 20.0
2019-Sep-15 04:15 015 2 gusting 4 20.0
2019-Sep-15 04:10 011 3 gusting 5 20.0
2019-Sep-15 04:05 015 3 gusting 6 19.4
2019-Sep-15 04:00 355 4 gusting 6 19.4
2019-Sep-15 03:55 355 2 gusting 4 19.4
2019-Sep-15 03:50 341 2 gusting 6 19.4
2019-Sep-15 03:45 005 2 gusting 6 19.4
2019-Sep-15 03:35 360 2 gusting 6 20.0
2019-Sep-15 03:30 005 3 gusting 6 20.0
2019-Sep-15 03:25 015 3 gusting 6 20.0
2019-Sep-15 03:20 018 3 gusting 6 20.0
2019-Sep-15 03:15 360 4 gusting 6 20.6
2019-Sep-15 03:10 137 20.6
2019-Sep-15 03:05 137 20.6
2019-Sep-15 03:00 137 0 gusting 3 20.6
2019-Sep-15 02:55 137 1 gusting 3 20.6
2019-Sep-15 02:50 138 1 gusting 4 20.6
2019-Sep-15 02:45 138 1 gusting 4 20.6
2019-Sep-15 02:40 009 20.6
2019-Sep-15 02:35 005 20.6
2019-Sep-15 02:30 005 1 gusting 5 20.6
2019-Sep-15 02:25 345 4 gusting 6 20.6
2019-Sep-15 02:20 005 4 gusting 6 20.0
2019-Sep-15 02:15 339 3 gusting 6 20.0
2019-Sep-15 02:10 348 4 gusting 5 20.0
2019-Sep-15 02:05 345 3 gusting 5 20.6
2019-Sep-15 02:00 355 3 gusting 5 20.6
2019-Sep-15 01:55 355 4 gusting 5 20.6
2019-Sep-15 01:50 355 3 gusting 5 20.6
2019-Sep-15 01:45 028 3 gusting 6 21.1
2019-Sep-15 01:40 005 4 gusting 6 21.1
2019-Sep-15 01:35 030 1 gusting 5 21.1
2019-Sep-15 01:30 024 3 gusting 4 21.1
2019-Sep-15 01:25 030 2 gusting 4 21.1
2019-Sep-15 01:20 016 3 gusting 5 21.1
2019-Sep-15 01:15 017 4 gusting 5 21.1
2019-Sep-15 01:10 015 0 gusting 3 21.7
2019-Sep-15 01:05 017 1 gusting 3 21.1
2019-Sep-15 01:00 332 1 gusting 3 21.1
2019-Sep-15 00:55 329 2 gusting 3 21.1
2019-Sep-15 00:50 327 1 gusting 3 20.6
2019-Sep-15 00:45 050 2 gusting 4 20.6
2019-Sep-15 00:40 338 3 gusting 5 21.1
2019-Sep-15 00:35 341 4 gusting 5 20.6
2019-Sep-15 00:30 017 1 gusting 4 20.6
2019-Sep-15 00:25 360 1 gusting 4 20.6
2019-Sep-15 00:20 121 1 gusting 3 21.1
2019-Sep-15 00:15 125 0 gusting 2 21.1
2019-Sep-15 00:10 126 21.7
2019-Sep-15 00:05 126 21.7
2019-Sep-15 00:00 126 21.1
2019-Sep-14 23:55 126 21.1
2019-Sep-14 23:50 126 21.1
2019-Sep-14 23:45 126 21.1
2019-Sep-14 23:40 126 21.1
2019-Sep-14 23:35 126 0 gusting 4 21.1
2019-Sep-14 23:30 127 1 gusting 4 21.1
2019-Sep-14 23:25 119 21.7
2019-Sep-14 23:20 113 21.7
2019-Sep-14 23:15 113 21.7
2019-Sep-14 23:10 113 21.7
2019-Sep-14 23:05 113 21.1
2019-Sep-14 23:00 112 21.1
2019-Sep-14 22:55 092 21.1
2019-Sep-14 22:50 092 21.1
2019-Sep-14 22:45 009 21.1
2019-Sep-14 22:40 009 21.1
2019-Sep-14 22:35 009 2 gusting 5 21.1
2019-Sep-14 22:30 355 3 gusting 5 21.1
2019-Sep-14 22:25 341 3 gusting 5 20.6
2019-Sep-14 22:20 342 3 gusting 5 20.6
2019-Sep-14 22:15 332 2 gusting 4 20.6
2019-Sep-14 22:10 337 2 gusting 5 21.1
2019-Sep-14 22:05 355 2 gusting 5 21.1
2019-Sep-14 22:00 355 3 gusting 5 21.1